Granada, Spain

1:59 PM CET en Febrero 17, 2019 (GMT +0100)
Granada

Tiempo Historia de LEGR - Febrero, 2019

Change the Weather History Date:

Martes, Febrero 12, 2019

  Actual Average Record
Temperature  
Temperatura media 48 ° F -  
Temperatura máxima 62 ° F 60 ° F 73 ° F (2002)
Temperatura mínima 34 ° F 35 ° F 17 ° F (2012)
Degree Days  
Grados día de calefacción 17    
Moisture  
Punto de rocío 41 ° F    
Average Humidity 79    
Maximum Humidity 100    
Minimum Humidity 42    
Precipitación  
Precipitación 0.00 pul - - ()
Presión al nivel del mar  
Presión al nivel del mar 30.40 pul    
Viento  
Velocidad del viento 2 mph ()    
Velocidad máxima del viento 10 mph    
Max Gust Speed -    
Visibilidad 7.6 Millas    
Eventos      
Averages and records for this station are not official NWS values.
T = Trace of Precipitation, MM = Missing Value Source: Averaged Metar Reports

Daily Weather History Graph

Daily Weather History Graph

Search for Another Location

Airport or City:

Astronomía

Feb. 12, 2019 Salida Puesta
Hora real 8:07 AM CET 6:51 PM CET
Crepúsculo civil 7:40 AM CET 7:18 PM CET
Crepúsculo náutico 7:10 AM CET 7:48 PM CET
Crepúsculo astronómico 6:40 AM CET 8:19 PM CET
Luna 12:14 PM CET (2/12) 1:04 AM CET (2/12)
Horas de luz 11h 37m
Horas de luz
10h 43m
Creciente, 45% of the Moon is Illuminated
Feb 12
Creciente
Feb 12
Cuarto creciente
Feb 19
Luna llena
Feb 26
Cuarto menguante
Mar 6
Nueva

Hourly Weather History & Observations

Hora (CET) Temp. Punto de rocío Humedad Presión Visibilidad Wind Dir Velocidad del viento Velocidad de ráfagas Precip Eventos Condiciones
12:00 AM 42 ° F 40 ° F 89% 30.41 pul 7 mi Sin viento Sin viento - -  
12:00 AM 42.8 ° F 39.2 ° F 87% 30.36 pul 6.2 mi Sin viento Sin viento - N/A   Desconocido
12:30 AM 42.8 ° F 39.2 ° F 87% 30.36 pul 6.2 mi Sin viento Sin viento - N/A   Desconocido
1:00 AM 41 ° F 38 ° F 87% 30.43 pul 8 mi OSO 1.2 mph - -  
1:00 AM 42.8 ° F 39.2 ° F 87% 30.36 pul 6.2 mi Variable 1.2 mph - N/A   Desconocido
1:30 AM 41.0 ° F 39.2 ° F 93% 30.36 pul 6.2 mi Variable 1.2 mph - N/A   Desconocido
2:00 AM 39 ° F 38 ° F 93% 30.44 pul 6 mi SO 2.3 mph - -  
2:00 AM 41.0 ° F 39.2 ° F 93% 30.36 pul 6.2 mi Variable 2.3 mph - N/A   Desconocido
2:30 AM 39.2 ° F 37.4 ° F 93% 30.36 pul 6.2 mi SO 2.3 mph - N/A   Parcialmente nublado
3:00 AM 39 ° F 38 ° F 95% 30.43 pul 7 mi Sin viento Sin viento - -  
3:00 AM 41.0 ° F 39.2 ° F 93% 30.36 pul 6.2 mi Sin viento Sin viento - N/A   Desconocido
4:00 AM 37 ° F 35 ° F 91% 30.44 pul 6 mi Sin viento Sin viento - -  
4:00 AM 37.4 ° F 35.6 ° F 93% 30.36 pul 6.2 mi Sin viento Sin viento - N/A   Desconocido
4:30 AM 37.4 ° F 35.6 ° F 93% 30.36 pul 6.2 mi Variable 1.2 mph - N/A   Desconocido
5:00 AM 36 ° F 35 ° F 92% 30.44 pul 4 mi Sin viento Sin viento - -  
5:00 AM 37.4 ° F 35.6 ° F 93% 30.36 pul 6.2 mi Sin viento Sin viento - N/A   Desconocido
5:30 AM 35.6 ° F 35.6 ° F 100% 30.36 pul 6.2 mi Sin viento Sin viento - N/A   Desconocido
6:00 AM 35 ° F 33 ° F 92% 30.46 pul 4 mi Sin viento Sin viento - -  
6:00 AM 35.6 ° F 33.8 ° F 93% 30.36 pul - Sin viento Sin viento - N/A   Despejado
6:30 AM 35.6 ° F 33.8 ° F 93% 30.36 pul - Sin viento Sin viento - N/A   Despejado
7:00 AM 35 ° F 34 ° F 93% 30.46 pul 7 mi Sur 1.2 mph - -   Despejado
7:00 AM 35.6 ° F 35.6 ° F 100% 30.36 pul - Variable 1.2 mph - N/A   Despejado
7:30 AM 37.4 ° F 35.6 ° F 93% 30.39 pul 6.2 mi Sin viento Sin viento - N/A   Nubes dispersas
8:00 AM 36 ° F 35 ° F 97% 30.47 pul 9 mi SO 1.2 mph - -   Nublado
8:00 AM 37.4 ° F 35.6 ° F 93% 30.39 pul 6.2 mi Sin viento Sin viento - N/A   Nublado
8:30 AM 37.4 ° F 35.6 ° F 93% 30.39 pul 6.2 mi Sin viento Sin viento - N/A   Muy nublado
9:00 AM 39 ° F 38 ° F 94% 30.47 pul 6 mi Sin viento Sin viento - -  
9:00 AM 39.2 ° F 39.2 ° F 100% 30.39 pul 6.2 mi Sin viento Sin viento - N/A   Muy nublado
9:30 AM 42.8 ° F 41.0 ° F 93% 30.42 pul 6.2 mi Sin viento Sin viento - N/A   Parcialmente nublado
10:00 AM 44 ° F 40 ° F 83% 30.47 pul 12 mi Sin viento Sin viento - -   Nubes dispersas
10:00 AM 46.4 ° F 41.0 ° F 81% 30.42 pul 6.2 mi Sin viento Sin viento - N/A   Parcialmente nublado
10:30 AM 46.4 ° F 42.8 ° F 87% 30.42 pul 6.2 mi Sin viento Sin viento - N/A   Parcialmente nublado
11:00 AM 50.0 ° F 42.8 ° F 76% 30.42 pul 6.2 mi Sin viento Sin viento - N/A   Parcialmente nublado
12:00 PM 55 ° F 45 ° F 61% 30.42 pul 11 mi Norte 1.2 mph - -  
12:00 PM 55.4 ° F 44.6 ° F 67% 30.42 pul 6.2 mi Sin viento Sin viento - N/A   Parcialmente nublado
12:30 PM 59.0 ° F 46.4 ° F 63% 30.42 pul 6.2 mi Variable 1.2 mph - N/A   Parcialmente nublado
1:00 PM 61 ° F 47 ° F 49% 30.38 pul 16 mi SSE 10.4 mph - -   Nubes dispersas
1:00 PM 60.8 ° F 46.4 ° F 59% 30.42 pul 6.2 mi SSE 9.2 mph - N/A   Parcialmente nublado
1:30 PM 60.8 ° F 44.6 ° F 55% 30.39 pul 6.2 mi SSE 9.2 mph - N/A   Nubes dispersas
2:00 PM 60 ° F 45 ° F 46% 30.37 pul 14 mi SE 10.4 mph - -   Parcialmente nublado
2:00 PM 60.8 ° F 44.6 ° F 55% 30.39 pul 6.2 mi SE 9.2 mph - N/A   Nubes dispersas
2:30 PM 62.6 ° F 44.6 ° F 52% 30.39 pul 6.2 mi SSE 5.8 mph - N/A   Nubes dispersas
3:00 PM 62 ° F 45 ° F 42% 30.34 pul 19 mi Sur 6.9 mph - -  
3:00 PM 62.6 ° F 42.8 ° F 48% 30.36 pul 6.2 mi Sur 8.1 mph - N/A   Nubes dispersas
3:30 PM 60.8 ° F 42.8 ° F 52% 30.36 pul 6.2 mi SSO 3.5 mph - N/A   Nubes dispersas
4:00 PM 59.0 ° F 44.6 ° F 59% 30.36 pul 6.2 mi OSO 6.9 mph - N/A   Muy nublado
4:30 PM 59.0 ° F 44.6 ° F 59% 30.36 pul 6.2 mi OSO 9.2 mph - N/A   Muy nublado
5:00 PM 59.0 ° F 44.6 ° F 59% 30.39 pul 6.2 mi Oeste 6.9 mph - N/A   Muy nublado
5:30 PM 59.0 ° F 44.6 ° F 59% 30.39 pul 6.2 mi OSO 3.5 mph - N/A   Muy nublado
6:00 PM 58 ° F 45 ° F 52% 30.37 pul 19 mi OSO 9.2 mph - -  
6:00 PM 59.0 ° F 44.6 ° F 59% 30.39 pul 6.2 mi OSO 6.9 mph - N/A   Muy nublado
6:30 PM 57.2 ° F 44.6 ° F 63% 30.39 pul 6.2 mi SSO 5.8 mph - N/A   Muy nublado
7:00 PM 53 ° F 44 ° F 64% 30.40 pul 16 mi SO 5.8 mph - -   Muy nublado
7:00 PM 53.6 ° F 44.6 ° F 72% 30.39 pul 6.2 mi SO 8.1 mph - N/A   Muy nublado
7:30 PM 50.0 ° F 42.8 ° F 76% 30.39 pul 6.2 mi Oeste 3.5 mph - N/A   Nubes dispersas
8:00 PM 49 ° F 42 ° F 71% 30.44 pul 16 mi ONO 4.6 mph - -  
8:00 PM 48.2 ° F 42.8 ° F 82% 30.42 pul 6.2 mi Oeste 3.5 mph - N/A   Nubes dispersas
8:30 PM 48.2 ° F 42.8 ° F 82% 30.42 pul 6.2 mi Variable 2.3 mph - N/A   Nubes dispersas
9:00 PM 46 ° F 42 ° F 81% 30.46 pul 13 mi Sin viento Sin viento - -  
9:00 PM 46.4 ° F 42.8 ° F 87% 30.42 pul 6.2 mi Sin viento Sin viento - N/A   Parcialmente nublado
9:30 PM 46.4 ° F 42.8 ° F 87% 30.42 pul 6.2 mi Sin viento Sin viento - N/A   Parcialmente nublado
10:00 PM 44 ° F 41 ° F 84% 30.47 pul 12 mi Sin viento Sin viento - -   Nubes dispersas
10:00 PM 44.6 ° F 41.0 ° F 87% 30.42 pul 6.2 mi Sin viento Sin viento - N/A   Parcialmente nublado
10:30 PM 42.8 ° F 41.0 ° F 93% 30.42 pul 6.2 mi Variable 1.2 mph - N/A   Parcialmente nublado
11:00 PM 42.8 ° F 41.0 ° F 93% 30.45 pul 6.2 mi Variable 1.2 mph - N/A   Parcialmente nublado
11:30 PM 42.8 ° F 39.2 ° F 87% 30.45 pul 6.2 mi Sin viento Sin viento - N/A   Desconocido